Wind_Speed
15 15 15 16 16 16 16 16 16 16 16 16 16 16 16 16 17 17 17 17 17 18 18 18 18 17 18 18 19 21 22 23 23 23 24 24 25 25 25 26 26 26 26
16 16 16 16 16 16 16 17 17 16 16 16 16 16 16 17 17 18 18 17 17 16 17 17 16 17 18 19 20 21 22 23 24 24 24 25 25 25 25 26 25 25 25
17 17 17 17 17 17 17 17 16 16 17 17 17 17 17 17 18 17 17 17 18 18 18 18 17 18 18 19 20 20 21 22 23 23 23 23 24 24 25 25 26 26 26
17 18 18 18 18 18 18 17 18 18 19 19 18 17 17 17 17 17 17 19 19 19 20 20 19 19 19 20 21 21 22 22 23 23 22 21 21 23 24 24 25 26 26
19 19 19 20 19 19 18 18 19 19 19 19 18 18 18 18 18 18 18 20 20 21 20 20 20 20 20 21 21 22 22 22 22 22 22 22 21 22 23 23 25 25 25
19 19 20 20 20 19 19 19 19 19 19 19 19 19 19 19 18 19 19 20 21 21 21 21 21 21 22 21 22 22 21 21 21 21 22 22 22 22 23 23 23 23 24
20 20 20 20 20 20 19 19 19 19 19 19 20 20 20 19 20 19 21 21 22 22 22 21 21 22 22 22 22 22 21 21 21 22 22 22 22 22 22 22 22 22 23
20 20 20 20 20 20 19 19 20 20 20 20 20 21 20 21 20 21 21 22 23 23 22 23 23 23 24 23 22 22 21 21 21 22 22 22 22 22 22 22 23 23 23
21 20 20 20 20 19 19 20 20 21 21 21 22 21 21 21 21 22 22 23 23 24 24 24 24 24 24 23 23 22 22 22 22 22 23 22 22 22 22 22 22 23 23
20 19 19 19 19 19 19 20 20 21 21 22 22 22 22 22 23 23 23 23 24 24 25 25 25 25 25 24 23 22 22 22 22 22 22 22 21 21 21 21 21 22 22
19 19 19 19 20 20 20 21 21 21 21 22 22 22 22 22 23 23 23 24 24 25 25 25 24 24 24 23 23 22 22 21 21 21 21 21 21 21 21 21 21 21 21
19 19 19 19 20 21 21 21 21 21 22 22 23 23 22 22 23 23 23 23 24 24 24 24 23 23 23 23 22 22 22 22 22 21 21 20 20 20 21 21 21 20 21
19 20 20 20 21 20 20 20 21 22 22 22 22 22 22 22 23 23 24 24 24 24 23 23 23 24 23 23 23 23 22 22 22 22 21 21 21 21 20 21 22 22 22
21 21 20 20 20 21 21 22 22 22 22 23 23 23 23 23 23 23 23 24 24 24 24 23 24 24 23 23 23 23 22 22 21 21 21 21 21 21 21 21 21 21 22
22 22 21 21 21 21 22 22 22 22 23 23 23 24 24 24 24 24 25 25 24 24 24 24 24 23 23 23 23 23 23 22 22 21 21 21 21 21 21 21 21 21 21
22 22 22 22 22 21 22 22 23 23 23 23 24 24 24 24 25 25 25 24 24 24 24 24 24 23 23 23 22 23 23 23 22 22 22 21 21 21 21 22 22 22 22
22 22 22 21 21 22 21 22 22 23 23 23 24 24 24 23 24 24 24 24 23 23 23 23 23 23 23 23 23 23 23 22 22 21 22 22 21 22 22 22 22 22 22
22 22 22 22 22 23 23 22 22 22 22 22 22 22 23 23 23 23 23 23 22 22 23 23 23 22 22 23 23 22 23 22 22 21 21 21 22 22 22 22 22 22 22
23 22 22 22 22 22 23 22 22 22 22 22 21 21 22 22 22 22 23 23 23 23 24 24 24 24 23 23 23 23 23 23 23 22 22 22 22 22 22 22 22 22 22
23 22 22 22 22 22 22 22 22 22 22 22 22 21 22 22 22 22 23 23 24 24 24 25 24 24 24 24 24 24 23 23 23 23 23 23 23 23 22 22 22 21 21
23 22 22 22 22 22 22 22 22 22 21 21 21 21 22 22 23 23 23 24 24 24 24 24 24 24 24 24 24 23 23 23 23 24 24 24 24 24 23 23 22 22 21
22 22 22 22 22 22 22 22 21 21 21 21 22 23 23 23 23 23 23 23 24 24 23 23 24 24 24 24 24 24 24 24 25 25 24 24 24 24 24 24 23 22 21
22 22 22 22 22 22 22 22 21 21 21 22 22 23 23 23 23 24 24 23 24 23 23 24 24 24 24 25 25 25 25 26 26 26 25 24 23 23 23 23 22 21 21
21 21 21 21 22 21 21 21 21 21 21 22 22 23 23 24 25 25 25 24 24 24 24 24 24 24 24 25 25 26 26 26 26 25 24 24 23 23 22 22 22 22 21
20 19 19 20 20 20 20 20 21 21 22 22 23 24 24 24 24 24 24 24 24 24 24 25 26 25 25 25 26 26 26 25 25 24 24 24 24 23 23 22 22 22 21
19 19 19 20 20 20 21 21 21 22 22 23 23 23 23 23 23 24 24 24 24 24 25 26 27 27 26 26 26 26 25 25 25 25 25 24 24 24 23 23 23 22 22
Wind_Direction
298 299 300 303 306 307 307 303 303 304 304 307 308 309 312 315 318 317 315 312 312 311 309 306 301 292 293 294 293 291 289 287 284 282 279 277 276 275 275 273 272 270 268
295 295 298 301 304 304 303 302 302 303 303 304 305 307 310 314 315 315 315 315 314 314 314 313 308 304 300 299 297 295 293 291 288 285 282 278 276 276 275 273 273 271 269
295 296 298 300 300 301 300 301 302 304 304 304 305 305 308 311 314 315 316 316 314 313 313 313 311 307 306 304 303 300 297 294 292 288 286 282 279 279 277 275 273 271 269
294 294 294 295 298 299 298 298 301 304 304 303 303 301 302 306 310 311 312 313 313 312 311 312 311 308 306 305 305 303 302 299 294 290 288 284 284 282 281 277 275 273 270
290 293 294 295 297 298 298 298 299 301 301 300 301 300 299 304 307 308 310 313 315 313 311 311 311 308 305 304 303 302 301 300 296 293 291 286 284 283 283 280 278 275 272
291 293 294 295 297 298 298 298 298 299 300 301 298 297 301 304 305 307 310 313 315 314 312 310 308 307 305 303 303 301 300 299 299 296 293 289 285 283 282 280 278 277 274
291 292 293 294 295 296 297 298 300 300 299 300 300 303 303 307 307 307 310 310 312 313 313 312 310 307 306 304 304 302 301 300 300 299 297 293 289 286 282 279 278 278 275
289 291 291 293 294 294 295 296 297 298 298 298 300 303 303 303 304 307 308 309 310 311 311 310 309 309 308 305 304 303 302 302 301 300 300 296 293 290 286 283 281 279 277
288 290 292 293 293 294 295 296 297 297 297 298 298 299 300 300 301 303 306 308 308 308 309 309 308 307 307 308 306 305 304 302 300 299 300 299 294 292 290 288 285 283 280
288 290 292 291 290 291 293 295 297 297 296 297 297 297 298 299 300 301 304 306 306 305 305 306 306 306 306 307 307 306 305 304 302 301 300 300 297 293 292 290 288 286 284
287 288 289 289 289 290 292 294 295 296 296 297 297 298 300 301 300 301 302 304 306 306 306 305 305 306 307 307 306 305 303 303 302 302 300 299 297 294 292 290 290 288 285
288 288 287 287 287 290 292 292 293 294 296 298 298 298 299 300 301 302 303 304 306 307 307 306 307 307 308 307 306 305 304 302 300 300 301 301 299 295 292 290 290 288 287
288 289 288 287 288 290 292 293 293 293 295 296 297 298 299 300 300 301 303 304 305 306 306 306 306 307 308 307 305 304 303 303 301 299 299 299 299 298 297 293 290 290 290
289 290 289 287 287 290 292 292 292 292 293 294 294 295 297 299 299 302 303 304 304 304 304 304 305 306 305 305 305 305 305 304 304 301 299 298 298 298 299 299 296 294 293
288 288 288 285 285 288 291 292 292 292 291 291 292 293 295 298 300 302 304 304 304 305 304 304 305 304 304 304 304 305 306 305 304 302 300 299 299 300 300 300 298 298 297
287 288 288 286 286 287 289 292 293 293 292 292 292 293 294 297 300 302 302 302 302 302 304 304 304 304 303 303 304 305 306 305 304 302 301 299 299 298 298 297 297 298 298
288 288 288 287 286 287 289 291 293 292 292 292 293 294 294 296 298 300 300 300 301 302 303 305 305 305 305 306 305 306 307 306 304 303 302 299 298 297 296 297 298 297 296
287 287 288 288 287 287 288 291 294 293 293 294 297 297 297 296 297 299 300 300 300 302 304 305 306 305 305 306 305 307 309 308 306 305 302 301 300 298 297 298 298 297 296
288 287 288 289 288 288 289 291 294 295 296 297 299 300 300 298 297 298 300 300 300 300 302 303 305 305 304 304 304 305 307 305 304 304 302 301 301 300 299 298 297 297 296
287 287 287 288 288 289 289 290 293 294 295 297 298 299 300 301 300 299 299 299 299 300 301 303 304 304 303 304 303 304 304 303 302 302 302 300 299 298 299 298 296 296 296
285 286 285 286 288 289 289 289 290 292 293 294 294 297 299 302 303 301 300 300 299 300 302 303 304 303 303 304 304 303 303 303 302 301 302 301 300 299 298 299 297 295 296
283 286 286 286 286 287 289 289 290 291 293 294 294 296 297 299 301 302 301 299 299 301 301 302 303 304 304 304 304 303 303 303 303 302 302 300 299 298 297 297 297 296 295
284 286 286 288 289 289 289 289 289 289 291 292 295 298 299 300 301 301 302 301 301 302 302 303 303 302 303 303 302 302 303 303 302 302 301 299 298 297 297 297 297 297 297
283 285 287 289 291 291 290 291 292 293 293 295 296 298 299 301 303 303 301 300 301 302 302 302 302 302 302 302 302 303 305 305 302 302 303 301 299 298 297 297 296 295 296
283 285 287 288 290 289 290 291 292 293 295 296 297 299 300 301 302 303 302 302 302 302 301 302 302 302 303 302 302 303 304 303 301 301 301 300 298 297 294 295 295 295 295
283 285 287 288 288 290 292 292 291 292 295 296 297 298 298 299 302 302 300 299 300 300 300 300 300 301 302 302 303 303 302 300 300 300 299 298 297 296 294 292 292 293 292
Height
5804 5803 5802 5801 5800 5798 5797 5796 5794 5793 5791 5790 5788 5786 5785 5783 5781 5779 5777 5775 5773 5771 5768 5766 5764 5763 5762 5760 5759 5758 5756 5755 5754 5754 5753 5753 5753 5753 5753 5753 5754 5754 5755
5801 5800 5799 5798 5796 5795 5794 5793 5791 5790 5788 5786 5785 5783 5782 5780 5778 5776 5774 5772 5769 5767 5765 5763 5761 5759 5757 5756 5754 5752 5751 5749 5748 5747 5746 5746 5746 5745 5745 5745 5746 5746 5747
5797 5796 5795 5794 5793 5792 5790 5789 5787 5786 5784 5783 5781 5780 5778 5777 5775 5773 5771 5769 5766 5764 5762 5760 5757 5755 5753 5751 5749 5747 5745 5743 5741 5740 5739 5739 5738 5738 5737 5737 5737 5738 5738
5794 5793 5792 5790 5789 5788 5786 5785 5783 5782 5780 5779 5777 5776 5774 5773 5771 5769 5767 5765 5763 5761 5759 5756 5754 5751 5749 5747 5744 5742 5740 5738 5735 5734 5733 5732 5731 5731 5730 5729 5729 5729 5729
5790 5789 5788 5786 5785 5784 5782 5781 5779 5778 5776 5774 5773 5771 5770 5768 5767 5765 5763 5761 5759 5757 5754 5752 5749 5747 5744 5742 5739 5737 5735 5732 5730 5728 5727 5726 5725 5724 5723 5722 5721 5721 5721
5786 5784 5783 5782 5780 5779 5778 5776 5775 5773 5772 5770 5769 5767 5765 5764 5762 5760 5759 5757 5755 5752 5750 5747 5744 5742 5739 5737 5734 5732 5729 5727 5725 5723 5721 5719 5718 5717 5716 5715 5714 5714 5714
5781 5780 5778 5777 5776 5775 5774 5772 5771 5769 5767 5766 5764 5761 5760 5758 5757 5756 5754 5752 5750 5748 5745 5742 5739 5737 5734 5731 5729 5726 5724 5721 5719 5717 5715 5713 5712 5711 5710 5709 5708 5707 5707
5776 5775 5774 5772 5771 5770 5769 5768 5766 5764 5763 5761 5760 5758 5756 5754 5752 5751 5749 5747 5745 5743 5740 5737 5734 5732 5729 5726 5723 5721 5719 5716 5714 5711 5709 5707 5706 5704 5703 5702 5701 5701 5701
5771 5769 5768 5767 5766 5765 5764 5763 5761 5760 5758 5756 5755 5753 5751 5749 5747 5746 5743 5741 5739 5737 5735 5732 5729 5726 5723 5720 5718 5715 5713 5710 5708 5705 5703 5701 5699 5698 5696 5695 5694 5694 5694
5765 5764 5763 5762 5761 5760 5759 5758 5756 5754 5753 5751 5750 5748 5746 5744 5742 5740 5738 5736 5733 5731 5728 5726 5723 5720 5717 5714 5712 5709 5707 5705 5702 5700 5698 5696 5694 5692 5690 5689 5688 5687 5686
5760 5759 5758 5757 5756 5755 5754 5753 5751 5749 5748 5746 5744 5743 5741 5739 5737 5735 5732 5730 5727 5725 5722 5719 5717 5714 5711 5708 5706 5704 5701 5699 5697 5694 5692 5690 5688 5686 5684 5683 5682 5680 5680
5755 5754 5753 5752 5751 5750 5749 5747 5746 5744 5742 5741 5739 5737 5735 5733 5731 5729 5727 5724 5722 5719 5716 5713 5711 5708 5705 5703 5700 5698 5695 5693 5691 5689 5687 5684 5682 5680 5679 5677 5676 5674 5673
5750 5749 5748 5747 5746 5744 5743 5742 5740 5739 5737 5735 5733 5731 5729 5727 5726 5723 5721 5719 5716 5713 5711 5708 5705 5702 5700 5697 5695 5692 5690 5687 5684 5682 5680 5678 5676 5675 5673 5671 5669 5668 5667
5745 5743 5742 5741 5740 5739 5738 5736 5735 5733 5732 5730 5727 5726 5724 5722 5720 5718 5715 5713 5710 5707 5705 5702 5699 5697 5694 5691 5689 5686 5684 5681 5678 5676 5674 5672 5670 5669 5667 5665 5663 5662 5661
5739 5737 5736 5735 5734 5733 5732 5730 5729 5727 5725 5724 5721 5719 5718 5716 5714 5712 5709 5707 5704 5701 5699 5696 5693 5691 5688 5686 5683 5680 5677 5675 5672 5670 5668 5666 5665 5663 5661 5659 5658 5656 5654
5733 5732 5730 5729 5728 5727 5726 5725 5723 5721 5719 5717 5715 5713 5711 5710 5707 5705 5703 5700 5698 5695 5693 5690 5688 5685 5682 5680 5677 5674 5671 5668 5666 5663 5661 5660 5658 5656 5655 5653 5651 5650 5648
5727 5726 5724 5723 5722 5721 5719 5718 5717 5715 5713 5711 5709 5706 5705 5703 5701 5699 5696 5694 5692 5689 5687 5684 5682 5679 5676 5674 5671 5668 5665 5662 5660 5657 5655 5653 5652 5650 5648 5646 5645 5643 5641
5721 5720 5718 5717 5716 5714 5713 5712 5710 5708 5706 5705 5703 5701 5699 5697 5695 5692 5690 5688 5686 5683 5681 5678 5676 5673 5670 5668 5665 5662 5659 5656 5653 5651 5649 5647 5645 5643 5641 5640 5638 5636 5634
5714 5713 5712 5711 5710 5708 5707 5705 5704 5702 5700 5699 5697 5695 5693 5691 5689 5687 5684 5682 5680 5677 5675 5673 5670 5667 5664 5662 5659 5656 5653 5650 5648 5645 5643 5641 5638 5636 5634 5633 5631 5629 5627
5708 5707 5705 5704 5703 5702 5700 5699 5698 5696 5694 5692 5691 5689 5687 5685 5683 5681 5678 5676 5673 5671 5669 5666 5663 5661 5658 5655 5652 5650 5647 5644 5641 5639 5637 5634 5632 5630 5628 5626 5624 5623 5621
5701 5700 5699 5698 5697 5695 5694 5693 5691 5690 5688 5686 5684 5682 5681 5679 5677 5674 5672 5669 5667 5665 5662 5660 5657 5654 5651 5648 5646 5643 5640 5638 5635 5633 5630 5627 5625 5623 5621 5619 5617 5616 5614
5694 5693 5692 5691 5690 5689 5687 5686 5685 5683 5682 5680 5678 5677 5675 5673 5670 5668 5666 5663 5660 5658 5656 5653 5650 5648 5645 5642 5639 5636 5634 5631 5628 5626 5623 5620 5618 5616 5614 5612 5610 5608 5607
5687 5686 5685 5684 5683 5682 5680 5679 5678 5677 5675 5674 5672 5670 5668 5666 5664 5661 5659 5657 5654 5652 5649 5646 5644 5641 5638 5635 5632 5630 5627 5624 5621 5618 5616 5613 5611 5609 5606 5605 5603 5601 5599
5680 5680 5678 5678 5677 5676 5674 5673 5672 5670 5669 5667 5666 5664 5662 5660 5657 5655 5652 5650 5648 5645 5642 5640 5637 5634 5631 5628 5625 5623 5620 5616 5613 5610 5608 5605 5603 5601 5599 5597 5595 5594 5592
5674 5673 5672 5671 5671 5669 5668 5667 5665 5664 5663 5661 5659 5657 5655 5653 5650 5648 5645 5643 5641 5638 5636 5633 5630 5627 5624 5621 5618 5615 5612 5609 5606 5603 5600 5598 5596 5593 5591 5589 5588 5586 5585
5668 5667 5666 5665 5665 5664 5662 5661 5659 5658 5656 5654 5652 5650 5648 5646 5644 5641 5639 5636 5634 5631 5629 5626 5623 5620 5617 5614 5610 5607 5604 5601 5598 5595 5592 5590 5588 5585 5583 5581 5580 5578 5577